Terminal Aerodrome Forecast
Issued by NWS

Home | Current Version | Previous Version | Text Only | Print | Product List | Glossary On
Versions: 1 2 3 4 5 6 7 8 9 10 11 12 13 14 15 16 17 18 19 20 21 22 23
000
FTUS45 KRIW 171200 AAA
TAFPNA
TAF AMD
KPNA 171233Z 1713/1812 29006KT P6SM VCTS SCT080CB BKN120
      TEMPO 1713/1716 VRB10G20KT -TSRA BKN050CB
     FM171600 VRB05KT P6SM VCSH SCT100 BKN150
     FM172100 VRB10G15KT P6SM VCSH BKN100
     FM180200 30006KT P6SM SCT110
      AMD LTD TO CLD VIS AND WIND=

USA.gov is the U.S. government's official web portal to all federal, state and local government web resources and services.